Вернуться в каталог

COSMOS 2173

АктивенВоенныеPO
NORAD 21796·PAYLOAD·🇷🇺 Russia

Запущен Nov 27, 1991 с Plesetsk Cosmodrome

Loading…

Ближайшие Пролёты (ближайшие 24 часа)

TLE

СвежийSource: Space-Track

Эпоха: Sep 14, 2026, 01:59 UTC

1 21796U 91081A   26257.08286274  .00000068  00000-0  53508-4 0  9992
2 21796  82.9523 104.9809 0050524  93.2582  18.1771 13.75770137746623

Отслеживайте COSMOS 2173 в реальном времени с AllMySat

Download on the App Store